Lid_Strength_Index
15 15 15 15 15 16 16 15 15 15 16 16 16 16 17 17 18 18 19 19 19 20 20 20 20 20 20 20 20 20 21 21 24 22 20 20 20 20 19 18 18 18 17
14 15 16 16 16 16 15 15 15 15 16 16 16 17 17 17 18 18 19 19 20 20 20 20 20 20 21 21 21 21 21 21 22 23 22 22 21 20 20 19 18 17 16
15 15 16 16 16 14 14 14 15 15 16 16 16 17 17 17 18 18 18 19 19 20 19 20 20 20 21 21 22 22 21 21 22 23 23 21 21 20 19 18 18 17 16
13 15 15 16 15 14 14 15 16 16 16 16 16 17 17 17 17 18 18 19 19 19 20 20 20 20 21 21 22 21 21 22 22 23 22 22 21 19 18 19 18 17 17
14 14 14 14 14 14 15 16 16 16 16 16 16 17 16 17 17 18 18 19 19 20 20 20 20 20 19 20 21 21 21 22 22 22 22 21 20 19 19 18 19 19 18
15 15 14 14 14 15 16 15 16 17 16 16 17 17 17 17 15 15 17 18 19 20 21 21 21 21 19 17 17 18 19 22 24 24 22 20 19 19 18 19 19 19 20
14 14 14 14 15 15 16 16 16 17 17 17 17 17 18 17 15 14 15 18 19 20 20 21 21 20 20 19 16 16 16 16 18 20 22 19 19 18 18 19 18 18 18
13 13 14 15 15 15 16 16 16 17 17 17 18 17 18 18 14 13 14 18 18 19 19 20 20 20 20 19 19 18 18 18 17 17 18 17 18 17 17 17 17 19 19
13 13 14 15 15 16 16 17 17 17 17 17 17 17 18 18 15 13 14 18 18 19 19 19 19 19 18 17 19 20 20 19 16 15 15 14 14 14 15 20 24 25 24
14 13 13 15 15 16 15 16 16 17 17 17 17 17 18 18 15 12 13 18 19 19 19 18 17 19 17 16 19 20 20 19 18 19 18 17 17 18 17 18 21 27 24
14 16 15 14 14 15 17 19 19 17 17 18 18 18 18 18 16 12 12 17 19 19 19 19 18 17 16 16 16 19 19 18 18 20 21 21 20 20 20 19 19 20 22
16 16 16 14 14 15 17 18 18 18 19 21 20 20 19 18 16 12 12 15 16 19 19 19 18 16 16 15 15 16 16 16 22 23 23 22 22 21 20 19 19 18 18
17 17 17 17 17 15 16 17 18 18 19 20 20 21 21 19 17 13 12 14 15 18 18 17 17 15 15 15 15 16 18 21 23 25 24 23 21 20 20 20 19 19 19
20 19 19 19 17 15 16 16 17 18 18 18 19 20 20 19 18 16 14 14 15 17 16 17 17 16 16 19 18 18 20 21 22 23 22 21 21 21 21 20 21 21 21
22 21 21 20 20 18 16 16 17 16 16 17 17 18 19 20 19 16 14 15 16 18 18 18 18 20 21 22 22 22 22 22 23 22 23 23 22 22 22 20 21 21 23
23 23 22 21 20 20 18 16 14 14 14 14 13 16 17 16 16 15 13 13 14 15 19 20 21 21 22 23 23 23 23 23 23 23 23 23 23 23 22 21 21 22 23
24 24 23 22 21 21 20 18 18 16 13 13 13 13 13 15 15 14 13 13 14 15 21 22 22 22 22 22 23 23 24 24 23 23 24 24 23 23 23 23 22 21 21
24 23 23 23 22 21 20 19 17 17 18 16 13 12 12 14 14 14 13 13 15 18 21 22 22 22 23 23 24 24 25 25 25 24 24 25 25 25 24 23 22 22 21
23 22 21 21 20 20 19 17 16 16 17 16 16 13 13 13 14 14 13 15 17 23 22 22 23 23 24 24 24 25 26 27 27 27 27 26 26 25 25 23 22 21 21
22 21 21 21 20 19 19 17 16 17 16 16 16 15 14 15 17 16 15 16 22 23 23 25 25 24 25 26 27 27 28 28 28 28 27 27 26 24 24 23 22 22 21
22 22 21 20 19 18 17 16 16 16 16 16 15 14 13 15 16 15 17 21 23 24 25 25 26 27 26 27 28 28 28 27 28 28 28 27 25 25 23 22 22 21 20
20 19 19 18 17 17 15 16 16 16 16 15 14 13 10 14 19 20 21 23 24 24 24 25 26 27 26 27 28 28 28 28 31 31 28 26 25 24 24 23 22 20 20
19 18 16 16 16 16 16 16 17 16 16 15 15 17 20 21 22 23 24 25 25 26 26 25 27 28 28 29 30 29 28 29 29 30 29 27 26 25 24 23 21 21 22
20 20 19 18 18 18 19 20 19 18 18 21 21 22 22 22 23 24 25 25 27 28 28 28 27 28 29 32 32 32 31 30 30 31 30 27 26 25 23 21 21 22 23
22 22 22 21 21 21 21 21 20 22 22 22 23 23 24 24 24 25 26 27 28 28 29 29 29 29 30 30 30 30 29 24 26 27 27 26 26 25 21 21 22 23 24
24 23 23 23 23 23 23 23 23 23 24 24 24 24 24 25 26 26 27 27 27 28 28 29 29 29 29 29 28 26 26 22 24 24 24 22 19 19 21 22 24 24 24